GFSFLT1_500_spd_021.txt.gz
Wind_Speed
28 38 21 7 11 16 14 15 13 14 16 21 24 24 23 20 20 19 19 16 12 7 6 3 6 4 4 8 12 18 18 22 23
33 22 18 10 13 12 16 15 12 9 8 16 20 20 22 24 23 22 18 13 5 1 2 1 4 5 7 12 15 15 19 22 19
34 41 34 14 19 19 20 17 14 11 7 9 9 11 15 18 21 20 15 8 3 5 1 8 7 4 5 8 14 17 20 23 24
35 33 32 29 23 26 23 24 22 13 10 10 10 9 9 11 15 14 11 5 9 4 3 4 6 6 8 13 16 21 22 23 26
29 34 32 32 28 30 24 31 23 12 12 8 10 10 7 6 5 7 6 7 11 6 6 7 11 10 11 14 18 26 27 28 28
30 31 35 32 37 38 26 27 24 17 15 11 10 8 6 5 5 6 6 9 9 7 8 10 8 11 16 20 24 27 26 28 30
35 21 35 37 38 34 29 24 26 22 18 16 15 9 7 7 6 7 7 10 9 9 11 10 13 15 14 20 25 33 34 33 31
28 33 35 39 39 40 34 25 24 23 22 21 20 16 11 10 10 8 7 12 13 10 9 11 17 17 18 21 27 36 37 36 44
36 33 37 37 40 46 37 36 36 35 25 24 25 22 16 16 14 11 10 14 15 15 15 17 18 20 22 25 29 35 40 42 46
42 37 40 44 39 39 40 41 41 36 33 27 28 28 25 19 17 16 15 17 15 15 18 20 17 20 24 28 33 39 43 41 46
49 41 42 39 43 42 45 46 48 46 40 31 29 29 29 26 20 18 19 20 18 17 15 16 17 20 25 31 36 42 45 46 49
56 51 44 46 48 37 43 40 43 41 43 36 32 30 33 31 23 20 24 21 21 20 17 17 20 23 28 33 37 43 46 47 53
56 50 54 57 51 41 46 43 42 46 46 41 39 33 34 32 30 24 28 26 23 23 23 22 23 27 32 37 41 45 48 49 51
71 64 57 60 56 60 56 45 44 46 42 42 37 36 36 37 36 29 27 29 32 28 28 28 27 31 35 39 42 46 50 50 50
49 76 74 69 61 53 51 55 55 41 39 37 39 37 38 39 35 29 26 22 24 30 30 37 37 33 38 41 46 49 49 51 51
44 48 62 73 80 68 57 59 69 62 56 47 41 40 40 39 34 30 26 22 30 30 34 40 40 32 39 45 48 50 50 48 48
50 53 52 55 60 69 71 69 57 60 63 57 46 45 43 41 33 34 33 31 32 34 41 45 41 44 43 49 50 53 48 46 43
43 44 55 58 56 54 52 50 59 64 67 63 53 45 44 41 37 38 37 37 37 43 41 38 41 42 49 51 51 53 48 46 44
41 49 44 47 58 54 50 47 49 46 49 56 49 47 47 46 43 40 41 45 42 44 45 39 46 49 50 49 50 49 48 46 43
35 45 46 56 37 48 55 54 51 50 47 51 49 49 50 44 40 42 44 46 46 49 46 45 49 49 50 48 48 46 47 45 44

GFSFLT1_500_spd_024.txt.gz
Wind_Speed
12 16 12 23 23 12 12 9 11 15 18 19 19 19 18 21 22 20 19 15 15 13 9 8 6 3 4 6 8 10 12 15 15
21 16 8 12 13 12 6 7 12 13 14 15 18 19 20 20 24 23 22 17 14 11 9 7 4 4 7 5 6 10 11 15 17
23 22 18 16 20 21 8 8 11 15 15 13 12 13 16 18 22 22 20 15 14 11 9 6 2 6 5 5 8 8 10 14 17
24 23 23 18 22 18 17 10 12 16 18 17 14 12 11 12 18 19 16 15 17 13 10 4 1 4 5 6 5 8 12 17 18
22 25 24 25 24 21 19 10 13 17 17 18 15 11 9 9 11 13 19 19 19 13 7 4 3 3 3 3 7 9 14 21 17
25 27 28 32 27 24 21 15 18 20 18 16 15 13 8 8 9 13 19 21 18 15 9 7 6 6 8 7 9 13 16 21 26
35 36 35 44 29 33 24 20 22 22 19 19 18 15 10 7 10 14 16 18 19 15 13 11 9 8 7 9 12 15 20 20 26
31 28 48 44 45 29 30 25 28 23 26 23 21 20 16 13 15 16 16 17 18 17 15 14 14 11 11 11 14 16 20 22 26
29 36 36 51 33 27 31 28 30 23 22 24 23 21 21 20 20 18 15 18 19 19 19 17 18 16 14 12 14 18 23 26 27
37 31 37 32 34 32 32 34 35 31 28 26 28 29 24 26 25 22 21 20 22 20 23 25 24 21 17 15 17 20 25 29 31
45 36 44 43 38 36 38 41 38 39 41 38 31 28 28 29 30 28 25 24 23 23 24 22 20 20 18 19 19 23 27 31 33
52 47 43 40 41 42 38 45 39 42 44 38 32 30 31 28 30 32 30 25 25 26 28 28 24 22 21 21 22 26 29 34 35
62 58 55 46 49 42 41 41 48 46 44 43 42 34 29 31 31 35 34 31 28 32 33 34 30 27 26 25 27 29 33 35 38
56 62 62 59 56 54 49 48 57 43 41 43 42 37 36 38 36 37 36 37 34 36 39 39 37 37 32 32 32 36 33 33 39
52 60 63 62 57 51 49 51 55 53 53 49 40 43 43 42 38 41 44 43 40 38 42 44 44 48 47 31 27 30 32 36 41
39 47 58 66 67 64 58 55 58 59 63 55 51 52 46 46 43 41 44 45 45 41 41 42 45 52 37 27 28 33 33 38 44
43 45 47 51 53 54 60 66 71 68 63 60 53 52 49 43 38 41 40 43 48 45 44 42 46 52 31 30 36 41 37 40 43
49 47 50 47 49 51 56 62 63 65 64 66 68 61 54 55 57 52 51 49 52 49 50 51 44 41 39 41 42 45 41 45 46
47 45 42 43 48 52 54 52 64 61 59 57 64 65 64 56 56 51 54 56 63 62 59 39 27 40 43 44 46 45 45 45 45
48 45 45 49 51 50 47 57 59 54 53 51 53 57 61 65 69 62 59 59 62 46 25 30 38 44 49 47 53 48 59 45 39

GFSFLT1_500_spd_027.txt.gz
Wind_Speed
12 17 11 11 11 16 16 14 10 9 9 9 13 16 18 18 16 14 16 15 15 13 15 16 15 11 6 8 9 10 9 12 12
17 11 5 4 2 5 9 10 5 6 6 6 9 14 19 19 20 18 18 18 18 17 17 17 15 9 7 9 8 8 9 10 11
21 16 12 7 3 5 10 8 10 7 7 7 9 9 13 18 22 22 23 21 19 19 17 16 15 10 7 7 7 8 6 7 9
24 21 14 9 10 9 10 12 15 11 9 9 10 12 13 13 15 20 22 19 20 19 18 18 13 9 7 7 9 8 4 6 10
30 25 20 18 16 16 18 15 15 16 11 12 13 15 14 14 14 15 18 21 21 20 21 19 14 9 7 7 8 8 10 8 10
36 30 28 27 26 26 22 21 16 18 13 15 18 16 15 13 14 13 14 22 23 23 24 18 15 12 9 10 11 10 12 11 12
39 35 32 32 31 32 25 26 21 21 17 18 20 17 13 10 11 12 14 23 24 25 25 20 18 17 14 13 12 10 13 13 13
47 43 42 40 37 33 28 34 29 25 23 20 22 20 14 10 12 15 15 18 21 24 24 22 21 20 17 16 16 15 14 17 18
45 48 48 43 41 34 32 33 36 28 28 22 21 26 20 17 16 16 17 20 22 23 23 24 24 22 23 20 20 20 18 20 22
43 49 44 46 45 32 31 22 27 31 30 28 27 27 25 21 22 21 19 21 25 25 23 26 27 27 27 27 26 23 21 22 24
46 53 47 47 44 42 35 31 37 32 31 31 29 29 30 27 28 26 27 27 25 28 27 26 30 31 32 32 27 25 23 26 28
47 52 52 51 49 48 45 45 33 34 36 37 36 38 39 37 33 29 31 32 28 26 31 30 29 31 31 31 31 30 26 31 31
43 48 58 59 55 53 52 51 44 34 36 39 43 40 40 42 37 30 30 33 34 35 31 31 35 36 38 38 36 35 31 37 36
42 45 51 53 49 57 57 54 47 42 42 40 37 37 46 42 40 34 33 35 38 43 40 38 39 41 44 43 43 40 38 42 39
37 38 48 54 50 49 47 49 50 49 46 45 41 45 49 49 46 40 40 41 41 44 49 46 44 44 46 50 48 48 49 52 41
36 35 32 45 59 59 51 53 56 56 58 45 46 47 48 51 49 45 46 47 48 47 50 54 53 51 51 49 52 54 54 60 34
39 39 39 38 41 53 62 59 60 59 53 50 49 50 54 56 60 53 50 51 54 51 52 53 60 59 55 51 51 55 57 50 28
48 44 43 41 43 44 45 48 52 53 56 57 57 60 59 60 59 60 59 55 54 53 49 56 61 64 62 55 56 62 54 45 40
52 51 50 50 52 54 55 55 57 57 57 62 64 67 66 72 64 61 57 57 56 56 60 58 59 70 56 59 49 51 29 36 35
59 59 57 56 55 57 56 56 49 51 55 59 62 67 68 69 70 63 64 69 62 64 71 67 65 71 77 44 36 11 24 34 40

GFSFLT1_500_spd_030.txt.gz
Wind_Speed
25 22 18 16 11 8 9 7 6 5 8 13 15 18 19 21 19 16 16 13 13 13 13 13 16 16 14 7 6 8 7 9 9
26 24 19 11 12 10 5 4 5 3 4 8 10 13 18 19 19 19 18 18 16 16 15 16 17 16 13 9 6 8 8 9 7
26 23 24 22 14 13 9 8 12 8 5 6 8 7 9 16 19 21 22 22 19 19 19 19 17 17 15 11 8 9 11 11 6
26 31 29 24 19 14 13 15 14 11 11 11 8 8 8 9 13 19 23 24 24 25 24 21 18 18 17 13 10 10 12 11 10
30 27 25 27 25 22 20 19 19 13 14 13 11 12 10 10 12 15 17 19 23 27 24 23 21 20 18 14 12 11 11 12 14
34 34 29 29 29 28 30 23 22 21 19 15 13 14 12 12 12 15 17 17 20 26 26 25 24 21 19 15 13 11 13 14 14
42 39 34 34 32 32 31 30 26 23 21 21 18 17 14 12 10 12 13 17 18 23 27 27 27 22 22 17 16 15 14 16 15
38 40 41 39 38 35 36 34 33 29 27 26 23 19 19 13 10 10 11 13 13 15 22 26 27 25 25 21 20 20 20 20 19
32 31 37 40 38 37 37 34 33 28 27 31 27 22 18 19 15 13 11 13 15 16 17 23 27 25 25 25 24 25 24 24 22
36 33 31 34 41 42 41 36 38 33 30 32 39 27 24 21 20 21 17 17 19 18 20 23 24 26 27 27 28 29 27 28 26
43 39 36 36 37 41 43 39 39 37 34 26 15 29 31 27 24 25 23 24 23 24 24 24 25 25 27 30 30 31 31 33 31
43 45 41 40 37 41 42 38 37 36 36 24 19 25 31 33 31 30 27 25 26 28 29 27 27 30 29 31 34 35 37 39 35
44 41 45 45 40 37 44 44 43 43 38 32 30 26 36 37 37 35 35 33 34 33 32 32 32 33 32 33 35 38 41 41 38
40 39 43 45 42 38 43 49 49 44 42 44 29 33 39 38 41 42 40 41 34 34 34 37 38 40 40 39 42 43 46 47 44
38 40 40 41 41 44 45 45 45 44 43 35 34 36 40 41 45 40 44 49 39 42 37 40 41 42 48 46 49 50 52 53 51
36 35 39 39 41 43 47 47 48 46 43 40 43 43 39 44 42 41 45 43 48 54 55 39 46 49 46 51 55 58 57 56 56
37 38 36 38 41 43 44 54 50 51 52 51 50 53 48 51 46 47 47 49 60 60 53 48 51 47 37 47 53 60 65 68 70
45 43 43 37 39 40 40 38 42 52 57 57 54 54 53 56 58 57 54 56 66 47 59 57 53 56 50 57 55 64 66 70 69
52 51 48 42 41 45 46 46 46 44 46 47 47 47 49 55 62 60 59 65 66 62 66 67 62 63 64 69 69 64 57 62 34
44 44 48 50 46 45 48 50 49 48 49 54 52 55 53 53 59 64 62 65 69 71 70 71 67 69 70 71 76 70 65 64 35

GFSFLT1_500_spd_033.txt.gz
Wind_Speed
24 26 24 23 22 20 16 12 11 10 12 14 16 18 19 20 19 18 18 19 18 17 18 15 13 10 10 10 9 6 5 8 10
28 26 27 23 23 21 17 16 15 12 13 13 13 16 21 23 23 21 20 21 22 20 20 18 16 13 10 11 11 8 6 9 11
28 26 23 22 20 18 17 19 16 17 13 11 13 13 14 17 20 22 23 24 23 23 24 21 20 16 13 11 13 11 9 9 10
31 26 23 23 22 23 21 20 19 16 15 12 9 13 13 13 13 17 22 24 26 27 28 24 23 19 16 14 15 14 11 10 10
31 30 27 31 28 26 25 25 24 17 16 12 11 14 13 12 13 11 12 16 23 28 31 30 27 23 19 18 17 17 12 11 9
40 28 27 33 36 31 27 24 21 21 21 14 15 17 17 13 11 11 12 12 16 18 25 29 30 26 20 21 20 19 15 13 14
40 38 38 41 40 36 32 29 27 26 25 22 21 21 19 14 11 12 14 14 13 15 21 26 30 27 24 24 23 22 18 15 16
38 41 41 42 37 37 36 35 32 29 30 28 26 20 22 16 13 15 14 10 11 13 13 16 26 28 27 26 26 24 20 19 18
41 43 44 45 46 42 41 40 37 32 31 32 26 26 23 21 19 19 17 11 11 10 11 12 16 24 27 27 26 26 26 25 23
33 36 40 45 46 46 44 42 41 37 34 30 30 26 27 31 26 22 21 19 18 14 14 13 13 18 22 25 25 29 30 29 29
38 36 34 34 33 36 40 38 37 35 33 32 31 30 29 31 36 25 24 26 24 22 20 21 19 17 19 23 25 27 30 33 36
43 42 38 36 35 34 33 35 37 33 36 37 34 29 31 26 29 28 32 29 26 25 26 26 26 25 23 20 20 25 30 35 39
43 43 44 40 38 37 33 31 33 34 36 40 34 29 24 23 32 38 35 33 35 31 31 30 30 32 32 30 29 31 34 38 41
44 45 45 44 40 36 33 33 34 33 35 35 34 38 35 31 27 35 41 44 43 42 44 48 37 43 32 38 38 41 40 43 47
44 45 44 45 43 39 35 35 35 37 37 41 42 42 43 43 34 33 39 39 46 55 51 50 36 37 42 43 44 46 46 48 54
45 40 45 46 44 39 36 34 36 36 36 39 41 43 43 40 38 39 41 44 53 60 50 41 44 42 46 41 42 48 47 50 58
44 47 41 39 39 39 39 37 34 37 39 41 42 43 43 44 42 41 43 49 53 52 62 40 49 54 51 53 56 50 41 52 60
44 44 45 42 39 36 35 38 40 36 40 44 44 46 47 48 46 48 50 54 52 52 49 48 52 58 62 60 60 55 63 55 59
50 43 41 43 43 42 39 39 39 40 39 39 43 50 52 52 54 55 57 59 61 61 61 58 57 61 66 71 70 70 66 62 69
44 45 46 45 43 43 34 32 42 44 43 43 42 42 43 46 50 50 53 55 54 55 56 57 62 67 70 76 78 76 71 70 70

GFSFLT1_500_spd_036.txt.gz
Wind_Speed
29 28 28 26 24 24 23 22 19 17 17 18 18 19 20 21 20 18 19 18 18 17 16 15 14 13 11 11 7 7 4 2 4
28 30 29 25 27 27 25 23 21 20 19 20 20 21 23 23 23 21 20 20 21 19 18 18 18 16 14 14 11 9 7 4 2
25 29 29 28 28 25 22 20 21 23 23 19 20 20 19 21 24 26 25 24 22 21 21 21 21 21 17 16 16 12 11 7 4
26 28 25 21 21 20 21 21 22 22 19 14 12 9 12 15 17 20 24 24 24 24 24 24 23 24 23 19 19 17 13 11 6
34 31 29 30 29 28 25 24 25 22 20 17 13 12 11 12 15 15 16 20 25 26 25 27 26 28 27 24 21 21 17 14 10
39 35 29 27 30 30 28 26 26 23 23 20 20 18 15 14 12 14 14 15 17 17 17 21 23 29 31 29 25 23 20 18 14
44 43 41 37 36 35 34 33 28 25 23 22 22 20 18 15 12 15 17 15 11 12 13 14 19 22 29 30 27 26 23 21 17
45 46 46 40 39 40 40 37 33 30 26 26 26 24 23 17 16 18 19 12 11 11 10 11 14 17 22 27 26 27 24 22 20
42 47 48 46 41 41 44 42 39 36 32 29 30 26 22 21 19 20 20 18 14 13 10 9 11 13 12 15 21 26 23 25 25
37 48 46 44 44 43 43 44 44 40 35 36 32 29 26 23 17 22 24 23 20 19 14 14 11 12 14 13 14 20 23 25 30
36 40 46 44 42 44 45 46 46 41 40 39 37 32 27 25 21 19 25 29 25 24 22 20 19 17 17 17 17 20 23 28 31
36 39 41 40 43 41 37 36 38 42 44 39 44 37 31 24 25 26 26 25 24 28 27 25 26 28 26 24 23 21 24 29 33
40 42 43 41 39 38 36 33 30 32 38 36 35 33 33 31 31 33 35 33 34 37 35 33 31 33 33 32 30 31 29 31 35
37 39 42 44 42 38 36 34 33 30 31 29 31 35 36 38 35 33 34 36 39 44 45 43 38 38 40 40 41 36 36 39 44
41 39 40 44 44 42 39 37 36 35 33 32 32 34 38 39 38 38 37 36 36 38 41 43 42 50 49 47 44 41 35 41 46
43 42 39 39 42 41 41 38 37 35 35 35 34 35 36 38 38 39 40 38 39 38 41 46 48 50 49 47 48 40 42 41 43
46 44 39 41 38 38 39 38 35 34 34 35 35 36 38 40 41 41 40 39 39 38 41 46 48 50 48 58 43 45 49 45 45
48 44 43 38 35 35 35 34 33 37 39 39 39 40 40 41 41 42 43 45 45 48 45 45 47 49 53 59 59 55 53 52 50
46 44 44 43 41 37 33 33 32 32 32 34 38 40 40 41 42 45 46 46 47 48 50 53 54 56 60 61 62 59 55 57 66
48 49 51 48 44 40 37 33 32 36 33 34 37 39 40 41 44 47 50 52 52 54 54 54 56 59 61 62 62 60 61 66 71

GFSFLT1_500_spd_042.txt.gz
Wind_Speed
23 28 25 18 19 19 21 22 22 22 19 18 19 17 16 15 14 13 13 13 13 11 10 10 10 8 8 8 7 7 6 6 5
30 31 29 15 19 19 22 22 21 21 20 19 17 16 16 14 13 13 14 16 16 15 13 13 12 11 10 10 9 8 8 8 8
33 34 31 12 15 20 23 23 24 22 20 17 18 17 16 15 15 14 15 16 16 17 18 18 15 16 14 13 12 10 9 9 10
38 34 34 23 13 20 24 23 24 22 21 19 19 18 15 13 14 14 11 11 13 16 19 21 18 19 18 17 15 13 11 11 11
33 39 38 28 15 21 26 26 24 22 22 21 18 16 15 13 8 5 5 5 6 8 10 12 16 15 19 17 17 17 15 14 12
34 36 33 33 25 21 23 24 24 24 23 19 16 16 16 13 8 6 6 5 5 7 9 11 11 11 14 15 16 15 17 17 15
39 38 37 36 34 22 24 24 25 26 24 22 22 21 19 14 9 8 6 6 6 7 9 10 10 10 11 11 11 9 14 17 17
32 34 38 36 32 30 28 29 26 24 24 23 23 20 19 15 13 8 5 7 7 7 8 8 9 10 10 9 7 9 10 13 14
37 44 47 46 40 35 26 24 24 27 26 26 25 22 18 17 14 11 9 9 9 6 9 11 11 12 11 8 7 8 8 9 10
38 38 40 41 39 34 34 29 30 29 25 26 25 19 17 15 14 12 10 12 10 10 11 11 13 14 15 11 9 9 9 11 13
45 44 42 42 36 34 31 31 31 29 29 28 27 25 21 20 17 15 14 14 18 16 15 15 14 16 18 16 11 14 15 15 16
37 41 42 39 35 32 33 34 37 38 34 29 27 26 24 26 22 21 18 19 19 19 19 20 19 20 16 16 16 17 21 23 26
42 38 36 32 28 31 31 31 36 38 37 30 28 28 28 33 33 29 29 25 26 27 28 25 25 24 21 20 19 19 23 29 34
35 36 35 31 31 30 35 33 31 29 21 20 20 29 34 37 35 35 35 38 34 32 32 31 28 25 24 22 23 21 24 29 35
39 36 34 35 36 34 33 33 30 29 25 22 27 30 32 35 39 41 41 40 40 41 37 35 30 29 29 28 26 29 30 32 36
38 36 37 37 36 35 37 36 33 30 27 28 29 29 28 29 31 31 33 34 37 37 35 35 33 33 32 32 35 36 39 38 37
46 41 41 41 40 39 38 38 34 32 32 32 33 32 32 32 33 32 33 34 34 35 35 36 36 37 37 38 41 42 43 43 41
47 46 43 44 43 41 42 38 35 36 34 36 37 37 36 34 35 35 34 37 37 38 38 39 40 42 42 43 43 45 46 46 47
50 49 49 47 45 45 43 41 41 39 37 35 37 38 39 38 37 38 38 38 39 39 41 42 42 43 45 47 47 48 51 53 54
54 53 51 50 48 48 46 45 44 42 41 41 40 38 38 39 40 41 41 42 43 44 44 43 45 46 48 51 54 56 58 58 60

GFSFLT1_500_spd_048.txt.gz
Wind_Speed
16 13 11 3 6 13 15 17 17 17 17 19 21 21 19 17 15 14 13 11 10 10 9 8 6 4 2 2 3 4 4 5 5
35 20 10 10 6 13 17 19 19 18 17 19 22 22 20 17 16 15 14 13 12 11 10 8 7 7 7 5 6 7 7 7 7
24 26 21 9 4 14 20 21 22 20 18 20 22 22 20 18 18 17 15 14 13 13 13 12 12 12 12 10 9 9 10 10 11
27 24 21 14 8 9 18 21 21 20 19 19 18 19 20 19 18 18 16 15 14 14 15 15 17 16 16 15 13 11 12 13 12
36 27 20 19 15 14 15 20 21 19 20 20 21 22 20 20 20 16 15 13 13 13 15 16 19 20 18 17 16 13 15 14 14
42 32 28 21 21 20 17 20 20 19 19 22 23 22 21 19 16 13 10 9 9 8 6 7 8 9 12 13 11 11 11 12 13
38 30 30 26 23 24 17 18 21 20 20 22 22 21 20 19 14 14 14 13 11 8 8 8 10 9 7 6 5 5 6 7 8
37 38 34 33 30 25 21 17 17 23 23 22 21 20 21 19 18 17 15 13 10 9 10 12 10 7 5 4 2 2 2 1 3
26 33 33 35 30 28 27 22 17 21 24 23 22 23 23 19 18 16 14 12 11 11 10 9 9 7 4 4 3 2 4 5 6
21 24 25 35 34 29 30 29 25 18 24 28 25 23 22 18 17 15 15 14 12 11 10 7 7 5 2 0 5 4 3 3 4
28 27 26 29 36 35 34 33 32 23 29 28 27 23 20 19 17 17 17 15 14 14 9 7 6 6 5 4 5 7 8 8 7
37 35 33 34 33 30 33 35 33 29 30 33 31 25 22 22 20 20 18 16 16 16 13 11 10 11 12 9 10 12 14 16 16
38 37 34 33 32 26 22 20 25 26 25 32 31 26 26 29 29 27 24 22 22 20 18 16 16 14 13 14 15 17 19 21 22
42 37 36 35 34 30 24 23 25 28 28 31 29 32 34 32 31 30 29 29 29 26 24 23 22 22 21 21 22 21 23 25 27
44 39 38 37 37 34 31 30 28 27 28 35 38 39 37 32 30 31 32 34 34 34 33 32 30 30 29 28 29 29 28 29 31
42 41 39 40 39 41 44 42 38 34 33 33 36 38 36 37 35 34 33 35 39 43 43 42 39 37 35 34 35 33 33 32 33
49 45 44 42 41 42 41 39 39 35 33 33 36 37 37 37 41 41 44 44 44 43 40 40 38 35 34 35 33 33 34 35 35
52 48 45 43 44 43 38 36 36 36 34 29 29 30 31 37 41 44 44 43 41 36 32 31 31 30 32 32 32 34 35 36 37
57 55 49 41 42 43 42 41 40 37 35 33 32 33 33 37 42 44 44 42 38 35 33 33 33 35 36 34 35 35 36 37 39
60 60 58 53 47 41 38 41 42 40 40 38 37 35 34 36 38 40 41 42 41 40 38 37 38 38 39 40 40 39 40 41 42